1515636000.85,17941,11.69,72910.5,-5.01,-5.65,-5.69,0,*52
1515636002.12,17942,11.69,72912.3,-5.03,-5.65,-5.69,0,*53
1515636003.37,17943,11.69,72916.5,-5.01,-5.69,-5.65,0,*50
1515636004.64,17944,11.69,72912.5,-5.03,-5.69,-5.69,0,*59
1515636005.89,17945,11.69,72914.5,-5.01,-5.69,-5.69,0,*5A
1515636007.16,17946,11.69,72914.0,-5.03,-5.77,-5.69,0,*54
1515636008.42,17947,11.69,72914.3,-5.03,-5.77,-5.77,0,*5A
1515636009.67,17948,11.69,72914.3,-5.01,-5.69,-5.69,0,*57
1515636010.92,17949,11.69,72916.8,-5.01,-5.69,-5.69,0,*56
1515636012.19,17950,11.69,72914.8,-5.03,-5.69,-5.69,0,*5C
1515636013.43,17951,11.69,72914.0,-5.01,-5.69,-5.77,0,*50
1515636014.7,17952,11.69,72910.5,-5.03,-5.77,-5.69,0,*51
1515636015.95,17953,11.69,72910.3,-5.01,-5.77,-5.69,0,*52
1515636017.19,17954,11.69,72908.8,-5.01,-5.69,-5.69,0,*5A
1515636018.46,17955,11.69,72912.8,-5.03,-5.69,-5.69,0,*59
1515636019.71,17956,11.69,72914.3,-5.01,-5.69,-5.69,0,*58
1515636020.98,17957,11.69,72910.3,-5.03,-5.69,-5.69,0,*5B
1515636022.25,17958,11.69,72912.3,-5.03,-5.69,-5.77,0,*5B
1515636023.49,17959,11.69,72908.5,-5.01,-5.69,-5.77,0,*58
1515636024.74,17960,11.69,72908.3,-5.01,-5.65,-5.69,0,*51
1515636025.98,17961,11.69,72906.0,-5.01,-5.69,-5.69,0,*5C
1515636027.23,17962,11.69,72904.3,-5.01,-5.77,-5.69,0,*50
1515636028.47,17963,11.69,72904.5,-5.01,-5.77,-5.69,0,*51
1515636029.74,17964,11.69,72906.3,-5.03,-5.77,-5.77,0,*5B
1515636030.98,17965,11.69,72898.8,-5.01,-5.81,-5.77,0,*51
1515636032.25,17966,11.69,72898.0,-5.03,-5.77,-5.77,0,*59
1515636033.5,17967,11.69,72896.5,-5.01,-5.81,-5.81,0,*5A
1515636034.76,17968,11.69,72894.8,-5.03,-5.77,-5.77,0,*57
1515636036.01,17969,11.69,72896.0,-5.01,-5.81,-5.77,0,*5D
1515636037.25,17970,11.69,72896.3,-5.01,-5.81,-5.77,0,*55
1515636038.49,17971,11.69,72898.0,-5.01,-5.77,-5.81,0,*54
1515636039.74,17972,11.69,72898.8,-5.01,-5.81,-5.77,0,*57
1515636041.0,17973,11.69,72898.3,-5.03,-5.77,-5.77,0,*5D
1515636042.25,17974,11.69,72896.5,-5.01,-5.81,-5.81,0,*58
1515636043.52,17975,11.69,72896.3,-5.03,-5.77,-5.81,0,*52
1515636044.77,17976,11.69,72904.8,-5.01,-5.77,-5.81,0,*53
1515636046.04,17977,11.69,72900.5,-5.03,-5.77,-5.81,0,*50
1515636047.28,17978,11.69,72902.5,-5.01,-5.81,-5.81,0,*54
1515636048.53,17979,11.69,72906.3,-5.01,-5.81,-5.77,0,*5C
1515636049.8,17980,11.69,72904.5,-5.03,-5.77,-5.81,0,*58
1515636051.04,17981,11.69,72902.3,-5.01,-5.77,-5.77,0,*52
1515636052.28,17982,11.69,72904.5,-5.01,-5.77,-5.77,0,*51
1515636053.53,17983,11.69,72902.0,-5.01,-5.81,-5.81,0,*50
1515636054.79,17984,11.69,72900.5,-5.03,-5.81,-5.77,0,*5C
1515636056.06,17985,11.69,72896.8,-5.03,-5.81,-5.77,0,*5D
1515636057.31,17986,11.69,72896.5,-5.01,-5.77,-5.81,0,*5C
1515636058.57,17987,11.69,72898.3,-5.03,-5.77,-5.77,0,*56
1515636059.84,17988,11.69,72894.5,-5.03,-5.81,-5.77,0,*50
1515636061.09,17989,11.69,72896.0,-5.01,-5.81,-5.77,0,*53
1515636062.33,17990,11.69,72892.3,-5.01,-5.81,-5.81,0,*52
1515636063.57,17991,11.69,72896.0,-5.01,-5.77,-5.77,0,*53
1515636064.84,17992,11.69,72904.8,-5.03,-5.69,-5.77,0,*5D
1515636066.11,17993,11.69,72900.0,-5.03,-5.77,-5.77,0,*53
1515636067.38,17994,11.69,72898.3,-5.03,-5.69,-5.69,0,*54
1515636068.63,17995,11.69,72898.0,-5.01,-5.65,-5.69,0,*5B
1515636069.9,17996,11.69,72898.8,-5.03,-5.69,-5.69,0,*56
1515636071.14,17997,11.69,72898.5,-5.01,-5.69,-5.69,0,*55
1515636072.39,17998,11.69,72892.5,-5.01,-5.69,-5.69,0,*5A
1515636073.66,17999,11.69,72902.5,-5.03,-5.69,-5.65,0,*55
1515636074.9,18000,11.69,72898.8,-5.01,-5.65,-5.65,0,*5D
1515636076.15,18001,11.69,72902.8,-5.01,-5.69,-5.69,0,*5C
1515636077.39,18002,11.69,72904.8,-5.01,-5.77,-5.69,0,*50
1515636078.67,18003,11.69,72904.5,-5.03,-5.69,-5.69,0,*5C
1515636079.91,18004,11.69,72906.0,-5.01,-5.69,-5.69,0,*59
1515636081.18,18005,11.69,72902.0,-5.03,-5.69,-5.69,0,*5A
1515636082.45,18006,11.69,72902.8,-5.03,-5.69,-5.69,0,*59
1515636083.7,18007,11.69,72904.3,-5.01,-5.77,-5.77,0,*5A
1515636084.94,18008,11.69,72906.0,-5.01,-5.77,-5.77,0,*55
1515636086.21,18009,11.69,72906.0,-5.03,-5.77,-5.77,0,*56
1515636087.45,18010,11.69,72904.0,-5.01,-5.81,-5.77,0,*55
1515636088.72,18011,11.69,72904.3,-5.03,-5.77,-5.81,0,*56
1515636089.99,18012,11.69,72900.0,-5.03,-5.77,-5.77,0,*5C
1515636091.26,18013,11.69,72902.0,-5.03,-5.69,-5.77,0,*52
1515636092.52,18014,11.69,72900.3,-5.03,-5.69,-5.77,0,*55
1515636093.77,18015,11.69,72902.8,-5.01,-5.69,-5.69,0,*59
1515636095.04,18016,11.69,72906.0,-5.03,-5.69,-5.69,0,*58
1515636096.31,18017,11.69,72900.8,-5.03,-5.69,-5.77,0,*56
1515636097.58,18018,11.69,72900.0,-5.03,-5.69,-5.69,0,*56
1515636098.83,18019,11.69,72898.3,-5.01,-5.69,-5.69,0,*55
1515636100.1,18020,11.69,72898.8,-5.03,-5.69,-5.69,0,*5D
1515636101.37,18021,11.69,72902.5,-5.03,-5.69,-5.65,0,*50
1515636102.61,18022,11.69,72904.3,-5.01,-5.65,-5.69,0,*51
1515636103.86,18023,11.69,72900.0,-5.01,-5.69,-5.69,0,*5C
1515636105.1,18024,11.69,72906.3,-5.01,-5.77,-5.69,0,*54
1515636106.37,18025,11.69,72902.0,-5.03,-5.77,-5.69,0,*57
1515636107.64,18026,11.69,72898.3,-5.03,-5.77,-5.77,0,*5B
1515636108.88,18027,11.69,72906.3,-5.01,-5.77,-5.77,0,*58
1515636110.13,18028,11.69,72904.8,-5.01,-5.69,-5.69,0,*57
1515636111.4,18029,11.69,72900.8,-5.03,-5.77,-5.69,0,*5B
1515636112.64,18030,11.69,72900.8,-5.01,-5.77,-5.77,0,*5E
1515636113.91,18031,11.69,72900.0,-5.03,-5.77,-5.69,0,*52
1515636115.18,18032,11.69,72902.3,-5.03,-5.81,-5.77,0,*57
1515636116.45,18033,11.69,72900.3,-5.03,-5.77,-5.77,0,*5F
1515636117.72,18034,11.69,72904.8,-5.03,-5.77,-5.69,0,*57
1515636118.96,18035,11.69,72898.3,-5.01,-5.77,-5.77,0,*5B
1515636120.23,18036,11.69,72898.5,-5.03,-5.77,-5.69,0,*55
1515636121.48,18037,11.69,72898.8,-5.01,-5.69,-5.81,0,*5F
1515636122.72,18038,11.69,72900.3,-5.01,-5.77,-5.77,0,*56
1515636123.96,18039,11.69,72902.0,-5.01,-5.69,-5.65,0,*5B
1515636125.21,18040,11.69,72900.8,-5.01,-5.69,-5.69,0,*59
1515636126.48,18041,11.69,72902.3,-5.03,-5.69,-5.69,0,*5A
1515636127.72,18042,11.69,72900.8,-5.01,-5.77,-5.77,0,*5B
1515636128.97,18043,11.69,72900.0,-5.01,-5.69,-5.69,0,*5A
1515636130.21,18044,11.69,72902.5,-5.01,-5.81,-5.69,0,*5B
1515636131.46,18045,11.69,72900.5,-5.01,-5.69,-5.69,0,*5C
1515636132.7,18046,11.69,72902.0,-5.01,-5.69,-5.77,0,*50
1515636133.95,18047,11.69,72908.0,-5.01,-5.69,-5.69,0,*5E
1515636135.22,18048,11.69,72900.0,-5.03,-5.69,-5.69,0,*53
1515636136.46,18049,11.69,72904.0,-5.01,-5.77,-5.69,0,*5F
1515636137.71,18050,11.69,72902.5,-5.01,-5.77,-5.65,0,*5B
1515636138.98,18051,11.69,72904.5,-4.97,-5.73,-5.65,0,*50
1515636140.22,18052,11.69,72902.5,-5.01,-5.69,-5.69,0,*5A
1515636141.47,18053,11.69,72902.8,-5.01,-5.69,-5.65,0,*57
1515636142.71,18054,11.69,72900.3,-5.01,-5.69,-5.65,0,*50
1515636143.96,18055,11.69,72902.5,-5.01,-5.65,-5.65,0,*5D
1515636145.23,18056,11.69,72904.0,-5.03,-5.65,-5.65,0,*5C
1515636146.47,18057,11.69,72900.0,-5.01,-5.77,-5.69,0,*50
1515636147.75,18058,11.69,72900.8,-5.03,-5.69,-5.65,0,*5E
1515636148.99,18059,11.69,72900.8,-5.01,-5.69,-5.65,0,*5D
1515636150.24,18060,11.69,72902.8,-5.01,-5.69,-5.69,0,*5B
1515636151.48,18061,11.69,72900.0,-5.01,-5.69,-5.65,0,*56
1515636152.73,18062,11.69,72898.8,-5.01,-5.65,-5.69,0,*55
1515636153.97,18063,11.69,72898.0,-5.01,-5.65,-5.65,0,*58
1515636155.24,18064,11.69,72902.0,-5.03,-5.69,-5.69,0,*5D
1515636156.49,18065,11.69,72896.8,-5.01,-5.65,-5.65,0,*5E
1515636157.76,18066,11.69,72902.0,-5.03,-5.77,-5.65,0,*5C
1515636159.0,18067,11.69,72900.3,-5.01,-5.69,-5.65,0,*50
1515636160.25,18068,11.69,72896.8,-5.01,-5.69,-5.69,0,*53
1515636161.49,18069,11.69,72900.0,-5.01,-5.69,-5.69,0,*52
1515636162.74,18070,11.69,72898.8,-5.01,-5.65,-5.65,0,*5A
1515636163.98,18071,11.69,72906.0,-5.01,-5.69,-5.69,0,*5B
1515636165.23,18072,11.69,72914.5,-5.01,-5.69,-5.69,0,*58
1515636166.48,18073,11.69,72906.8,-5.01,-5.65,-5.69,0,*55
1515636167.72,18074,11.69,72908.5,-5.01,-5.77,-5.69,0,*51
1515636168.96,18075,11.69,72910.8,-5.01,-5.77,-5.65,0,*5C
1515636170.21,18076,11.69,72908.5,-5.01,-5.69,-5.65,0,*50
1515636171.46,18077,11.69,72910.8,-5.01,-5.69,-5.69,0,*5D
1515636172.73,18078,11.69,72912.0,-5.03,-5.69,-5.65,0,*5C
1515636173.97,18079,11.69,72904.0,-5.01,-5.65,-5.65,0,*53
1515636175.22,18080,11.69,72908.0,-5.01,-5.65,-5.65,0,*55
1515636176.46,18081,11.69,72910.8,-5.01,-5.69,-5.69,0,*54
1515636177.74,18082,11.69,72906.0,-4.97,-5.61,-5.61,0,*59
1515636178.98,18083,11.69,72910.8,-5.01,-5.69,-5.69,0,*56
1515636180.23,18084,11.69,72912.0,-5.01,-5.69,-5.65,0,*5D
1515636181.47,18085,11.69,72912.8,-5.01,-5.69,-5.65,0,*5C
1515636182.72,18086,11.69,72912.8,-5.01,-5.69,-5.69,0,*53
1515636184.0,18087,11.69,72914.3,-4.97,-5.65,-5.65,0,*5C
1515636185.27,18088,11.69,72914.0,-4.97,-5.61,-5.65,0,*57
1515636186.51,18089,11.69,72912.0,-5.01,-5.69,-5.65,0,*50
1515636187.78,18090,11.69,72910.0,-5.03,-5.69,-5.65,0,*5A
1515636189.03,18091,11.69,72910.8,-5.01,-5.69,-5.69,0,*55
1515636190.27,18092,11.69,72908.0,-5.01,-5.69,-5.65,0,*5A
1515636191.52,18093,11.69,72906.8,-5.01,-5.65,-5.69,0,*5B
1515636192.77,18094,11.69,72906.5,-5.01,-5.69,-5.69,0,*50
1515636194.01,18095,11.69,72904.8,-5.01,-5.65,-5.65,0,*51
1515636195.26,18096,11.69,72904.3,-5.01,-5.69,-5.69,0,*52
1515636196.5,18097,11.69,72906.3,-5.01,-5.77,-5.65,0,*50
1515636197.75,18098,11.69,72914.8,-5.01,-5.65,-5.69,0,*50
1515636198.99,18099,11.69,72918.8,-5.01,-5.69,-5.69,0,*5D
1515636200.23,18100,11.69,72910.8,-5.01,-5.77,-5.77,0,*5C
1515636201.48,18101,11.69,72908.0,-5.01,-5.77,-5.81,0,*54
1515636202.75,18102,11.69,72892.8,-5.03,-5.81,-5.81,0,*5C
1515636204.02,18103,11.69,72892.3,-5.03,-5.77,-5.77,0,*5D
1515636205.26,18104,11.69,72896.8,-5.01,-5.77,-5.77,0,*58
1515636206.51,18105,11.69,72900.0,-5.01,-5.69,-5.69,0,*59
1515636207.75,18106,11.69,72896.5,-5.01,-5.77,-5.77,0,*5A
1515636208.99,18107,11.69,72894.8,-5.01,-5.77,-5.77,0,*5B
1515636210.23,18108,11.69,72896.3,-5.01,-5.77,-5.77,0,*54
1515636211.5,18109,11.69,72896.8,-4.97,-5.77,-5.77,0,*5B
1515636212.77,18110,11.69,72900.0,-4.97,-5.77,-5.77,0,*53
1515636214.05,18111,11.69,72900.3,-4.97,-5.77,-5.77,0,*52
1515636215.29,18112,11.69,72896.8,-5.01,-5.81,-5.81,0,*5F
1515636216.56,18113,11.69,72896.8,-5.03,-5.77,-5.81,0,*55
1515636217.83,18114,11.69,72898.3,-5.03,-5.77,-5.77,0,*5B
1515636219.07,18115,11.69,72894.8,-5.01,-5.77,-5.77,0,*58
1515636220.32,18116,11.69,72892.5,-5.01,-5.77,-5.81,0,*52
1515636221.59,18117,11.69,72892.5,-5.03,-5.81,-5.81,0,*58
1515636222.83,18118,11.69,72892.0,-5.01,-5.81,-5.77,0,*5C
1515636224.08,18119,11.69,72898.8,-5.01,-5.77,-5.69,0,*5B
1515636225.32,18120,11.69,72898.0,-5.01,-5.77,-5.77,0,*5E
1515636226.59,18121,11.69,72900.3,-5.03,-5.77,-5.69,0,*52
1515636227.83,18122,11.69,72898.8,-5.01,-5.77,-5.69,0,*53
1515636229.08,18123,11.69,72900.3,-5.01,-5.77,-5.69,0,*52
1515636230.35,18124,11.69,72896.3,-5.03,-5.77,-5.77,0,*58
1515636231.59,18125,11.69,72896.0,-5.01,-5.77,-5.77,0,*5B
1515636232.83,18126,11.69,72892.0,-5.01,-5.77,-5.77,0,*58
1515636234.07,18127,11.69,72894.8,-5.01,-5.81,-5.77,0,*50
1515636235.32,18128,11.69,72898.0,-5.01,-5.69,-5.69,0,*56
1515636236.56,18129,11.69,72894.3,-5.01,-5.69,-5.69,0,*57
1515636237.81,18130,11.69,72892.5,-5.01,-5.69,-5.65,0,*53
1515636239.08,18131,11.69,72894.5,-5.03,-5.69,-5.81,0,*5A
1515636240.33,18132,11.69,72894.3,-5.01,-5.81,-5.81,0,*5D
1515636241.57,18133,11.69,72892.5,-5.01,-5.69,-5.77,0,*53
1515636242.81,18134,11.75,72898.0,-5.01,-5.77,-5.77,0,*5B
1515636244.08,18135,11.69,72892.0,-5.03,-5.77,-5.77,0,*58
1515636245.32,18136,11.69,72890.3,-5.01,-5.69,-5.77,0,*56
1515636246.57,18137,11.69,72890.5,-5.01,-5.77,-5.81,0,*51
1515636247.83,18138,11.69,72890.3,-5.03,-5.81,-5.77,0,*5C
1515636249.08,18139,11.69,72888.5,-5.01,-5.81,-5.81,0,*56
1515636250.35,18140,11.69,72888.0,-5.03,-5.81,-5.81,0,*5A
1515636251.59,18141,11.69,72894.8,-5.01,-5.77,-5.77,0,*59
1515636252.86,18142,11.69,72894.8,-5.03,-5.77,-5.77,0,*58
1515636254.11,18143,11.69,72894.3,-5.01,-5.77,-5.81,0,*52
1515636255.37,18144,11.69,72892.0,-5.03,-5.77,-5.77,0,*5E
1515636256.64,18145,11.69,72890.5,-5.03,-5.77,-5.77,0,*5F
1515636257.88,18146,11.69,72892.3,-5.01,-5.77,-5.77,0,*5E
1515636259.13,18147,11.69,72894.0,-5.01,-5.77,-5.69,0,*50
1515636260.37,18148,11.69,72892.3,-5.01,-5.77,-5.77,0,*50
1515636261.64,18149,11.69,72892.3,-5.03,-5.69,-5.69,0,*53
1515636262.89,18150,11.69,72892.0,-5.01,-5.69,-5.69,0,*59
1515636264.16,18151,11.69,72896.0,-4.97,-5.65,-5.65,0,*56
1515636265.41,18152,11.69,72892.0,-5.01,-5.69,-5.65,0,*57
1515636266.65,18153,11.69,72894.3,-5.01,-5.77,-5.77,0,*5A
1515636267.89,18154,11.69,72892.5,-5.01,-5.77,-5.69,0,*52
1515636269.13,18155,11.69,72892.3,-5.01,-5.69,-5.77,0,*53
1515636270.38,18156,11.69,72894.3,-5.01,-5.77,-5.77,0,*5F
1515636271.62,18157,11.69,72898.0,-5.01,-5.69,-5.77,0,*51
1515636272.86,18158,11.69,72892.3,-5.01,-5.81,-5.77,0,*58
1515636274.1,18159,11.69,72892.3,-5.01,-5.81,-5.77,0,*59
1515636275.37,18160,11.69,72892.0,-5.03,-5.81,-5.77,0,*51
1515636276.64,18161,11.69,72898.8,-5.03,-5.77,-5.77,0,*59
1515636277.88,18162,11.69,72894.3,-5.01,-5.77,-5.81,0,*51
1515636279.15,18163,11.69,72894.5,-5.03,-5.81,-5.77,0,*52
1515636280.42,18164,11.69,72894.5,-5.03,-5.77,-5.81,0,*55
1515636281.66,18165,11.69,72896.8,-5.01,-5.77,-5.77,0,*5F
1515636282.91,18166,11.69,72894.8,-5.01,-5.77,-5.77,0,*5C
1515636284.15,18167,11.69,72894.5,-5.01,-5.77,-5.77,0,*5D
1515636285.42,18168,11.69,72898.8,-5.03,-5.77,-5.81,0,*59
1515636286.66,18169,11.69,72898.0,-5.01,-5.77,-5.77,0,*53
1515636287.93,18170,11.69,72898.8,-5.03,-5.77,-5.69,0,*56
1515636289.2,18171,11.69,72896.3,-5.03,-5.77,-5.69,0,*57
1515636290.45,18172,11.69,72900.0,-5.01,-5.77,-5.69,0,*56
1515636291.69,18173,11.69,72898.3,-5.01,-5.69,-5.65,0,*54
1515636292.94,18174,11.69,72902.5,-5.01,-5.69,-5.65,0,*53
1515636294.18,18175,11.69,72906.8,-5.01,-5.69,-5.65,0,*52
1515636295.43,18176,11.69,72902.0,-5.01,-5.69,-5.69,0,*5D
1515636296.7,18177,11.69,72906.0,-5.03,-5.69,-5.69,0,*5E
1515636297.97,18178,11.69,72900.8,-5.03,-5.81,-5.77,0,*58
1515636299.24,18179,11.69,72898.8,-5.03,-5.77,-5.77,0,*50
1515636300.48,18180,11.69,72902.0,-5.01,-5.69,-5.69,0,*54
1515636301.75,18181,11.69,72900.3,-5.03,-5.69,-5.69,0,*57
1515636303.02,18182,11.69,72896.8,-5.03,-5.69,-5.69,0,*54
1515636304.3,18183,11.69,72898.8,-5.03,-5.77,-5.69,0,*5A
1515636305.54,18184,11.69,72902.8,-5.01,-5.81,-5.69,0,*56
1515636306.79,18185,11.69,72902.8,-5.01,-5.77,-5.69,0,*5E
1515636308.03,18186,11.69,72906.8,-5.01,-5.77,-5.69,0,*5D
1515636309.28,18187,11.69,72908.3,-5.01,-5.69,-5.69,0,*53
1515636310.52,18188,11.69,72904.0,-5.01,-5.69,-5.65,0,*50
1515636311.77,18189,11.69,72904.0,-5.01,-5.69,-5.69,0,*5D
1515636313.04,18190,11.69,72906.3,-5.03,-5.65,-5.65,0,*57
1515636314.28,18191,11.69,72904.5,-5.01,-5.65,-5.65,0,*54
1515636315.55,18192,11.69,72908.5,-5.03,-5.69,-5.65,0,*59
1515636316.8,18193,11.69,72908.0,-5.01,-5.65,-5.69,0,*5A
1515636318.04,18194,11.69,72906.5,-5.01,-5.69,-5.69,0,*51
1515636319.32,18195,11.69,72910.3,-5.03,-5.69,-5.69,0,*52
1515636320.56,18196,11.69,72906.5,-5.01,-5.65,-5.69,0,*5F
1515636321.81,18197,11.69,72904.0,-5.01,-5.65,-5.69,0,*5E
1515636323.05,18198,11.69,72902.5,-5.01,-5.77,-5.65,0,*5E
1515636324.3,18199,11.69,72904.3,-5.01,-5.69,-5.69,0,*5C
1515636325.54,18200,11.69,72900.8,-5.01,-5.69,-5.69,0,*5F
1515636326.79,18201,11.69,72904.8,-5.01,-5.69,-5.69,0,*5E
1515636328.03,18202,11.69,72908.3,-5.01,-5.69,-5.69,0,*5D
1515636329.28,18203,11.69,72904.0,-5.01,-5.69,-5.81,0,*5A
1515636330.52,18204,11.69,72910.0,-5.01,-5.77,-5.77,0,*5B
1515636331.77,18205,11.69,72904.8,-5.01,-5.77,-5.81,0,*53
1515636333.03,18206,11.69,72904.5,-5.03,-5.77,-5.77,0,*5B
1515636334.28,18207,11.69,72906.3,-5.01,-5.77,-5.77,0,*58
1515636335.52,18208,11.69,72906.3,-5.01,-5.77,-5.81,0,*5E
1515636336.76,18209,11.69,72906.5,-5.01,-5.77,-5.77,0,*56
1515636338.01,18210,11.69,72904.3,-5.01,-5.77,-5.81,0,*57
1515636339.28,18211,11.69,72906.5,-5.03,-5.81,-5.77,0,*54
1515636340.54,18212,11.75,72908.0,-5.03,-5.77,-5.77,0,*5E
1515636341.81,18213,11.69,72910.0,-5.03,-5.77,-5.77,0,*5F
1515636343.06,18214,11.69,72908.8,-5.01,-5.77,-5.69,0,*55
1515636344.33,18215,11.69,72906.5,-5.03,-5.77,-5.81,0,*50
1515636345.59,18216,11.69,72908.3,-5.03,-5.77,-5.77,0,*5A
1515636346.84,18217,11.69,72904.8,-5.01,-5.77,-5.69,0,*56
1515636348.08,18218,11.69,72906.5,-5.01,-5.77,-5.77,0,*56
1515636349.32,18219,11.69,72902.3,-5.01,-5.77,-5.77,0,*57
1515636350.59,18220,11.69,72902.8,-5.03,-5.81,-5.77,0,*56
1515636351.84,18221,11.69,72900.8,-5.01,-5.77,-5.81,0,*55
1515636353.1,18222,11.69,72902.5,-5.03,-5.77,-5.77,0,*5D
1515636354.37,18223,11.69,72900.5,-5.03,-5.81,-5.77,0,*55
1515636355.62,18224,11.69,72898.0,-5.01,-5.77,-5.81,0,*50
1515636356.89,18225,11.69,72896.3,-5.03,-5.81,-5.77,0,*53
1515636358.13,18226,11.69,72900.5,-5.01,-5.81,-5.77,0,*52
1515636359.37,18227,11.69,72898.5,-5.01,-5.81,-5.77,0,*53
1515636360.61,18228,11.69,72896.8,-5.01,-5.77,-5.77,0,*55
1515636361.85,18229,11.69,72900.5,-5.01,-5.81,-5.77,0,*5D
1515636363.12,18230,11.69,72902.3,-5.03,-5.81,-5.77,0,*57
1515636364.37,18231,11.69,72904.8,-5.01,-5.77,-5.77,0,*5D
1515636365.63,18232,11.69,72906.3,-5.03,-5.81,-5.77,0,*55
1515636366.9,18233,11.69,72904.3,-5.03,-5.77,-5.77,0,*5D
1515636368.14,18234,11.69,72906.3,-5.01,-5.81,-5.77,0,*51
1515636369.41,18235,11.69,72904.5,-5.03,-5.77,-5.69,0,*54
1515636370.69,18236,11.69,72906.5,-5.03,-5.77,-5.69,0,*57
1515636371.93,18237,11.69,72910.0,-5.01,-5.69,-5.65,0,*57
1515636373.17,18238,11.69,72912.0,-5.01,-5.77,-5.69,0,*5B
1515636374.42,18239,11.69,72910.5,-5.01,-5.69,-5.81,0,*53
1515636375.69,18240,11.69,72908.5,-5.03,-5.77,-5.77,0,*59
1515636376.93,18241,11.69,72910.3,-5.01,-5.77,-5.81,0,*53
1515636378.2,18242,11.69,72912.8,-5.03,-5.77,-5.77,0,*5B
1515636379.47,18243,11.75,72912.8,-5.03,-5.81,-5.77,0,*53
1515636380.74,18244,11.69,72910.5,-5.03,-5.81,-5.77,0,*54
1515636382.0,18245,11.75,72914.0,-5.03,-5.77,-5.77,0,*5C
1515636383.28,18246,11.69,72910.3,-5.03,-5.77,-5.81,0,*56
1515636384.55,18247,11.69,72910.3,-5.03,-5.81,-5.81,0,*5E
1515636385.82,18248,11.69,72910.3,-5.03,-5.77,-5.77,0,*51
1515636387.09,18249,11.69,72902.3,-5.03,-5.77,-5.69,0,*5F
1515636388.33,18250,11.75,72904.5,-5.01,-5.77,-5.77,0,*5A
1515636389.6,18251,11.69,72900.3,-5.03,-5.77,-5.77,0,*59
1515636390.84,18252,11.75,72906.0,-5.01,-5.77,-5.77,0,*58
1515636392.11,18253,11.69,72900.8,-5.03,-5.81,-5.81,0,*5B
1515636393.38,18254,11.69,72900.0,-5.03,-5.77,-5.77,0,*5C
1515636394.62,18255,11.69,72898.3,-5.01,-5.81,-5.77,0,*56
1515636395.89,18256,11.69,72900.0,-5.03,-5.81,-5.77,0,*57
1515636397.16,18257,11.69,72896.0,-5.03,-5.77,-5.77,0,*5F
1515636398.42,18258,11.69,72896.8,-5.03,-5.81,-5.77,0,*59
1515636399.69,18259,11.69,72894.0,-5.03,-5.77,-5.77,0,*51
1515636400.96,18260,11.69,72892.5,-5.03,-5.77,-5.77,0,*5B
1515636402.23,18261,11.69,72894.3,-5.03,-5.77,-5.81,0,*53
1515636403.5,18262,11.69,72892.5,-5.03,-5.81,-5.81,0,*59
1515636404.77,18263,11.69,72892.3,-5.03,-5.77,-5.81,0,*51
1515636406.05,18264,11.69,72894.8,-5.03,-5.81,-5.81,0,*5F
1515636407.32,18265,11.69,72894.5,-5.03,-5.77,-5.81,0,*57
1515636408.58,18266,11.69,72898.5,-5.03,-5.81,-5.77,0,*54
1515636409.85,18267,11.69,72894.8,-5.03,-5.81,-5.77,0,*55
1515636411.12,18268,11.69,72894.8,-5.03,-5.81,-5.77,0,*5A
1515636412.39,18269,11.69,72896.0,-5.03,-5.77,-5.81,0,*5B
1515636413.66,18270,11.69,72898.8,-5.03,-5.77,-5.77,0,*5A
1515636414.93,18271,11.69,72896.0,-5.03,-5.77,-5.77,0,*5B
1515636416.17,18272,11.69,72898.0,-5.01,-5.81,-5.69,0,*5C
1515636417.44,18273,11.69,72896.8,-5.03,-5.69,-5.69,0,*59
1515636418.72,18274,11.69,72896.3,-5.03,-5.69,-5.81,0,*58
1515636419.98,18275,11.69,72894.8,-5.03,-5.69,-5.77,0,*50
1515636421.23,18276,11.69,72896.3,-5.01,-5.81,-5.81,0,*5E
1515636422.5,18277,11.69,72896.8,-5.03,-5.77,-5.77,0,*5D
1515636423.77,18278,11.69,72896.3,-5.03,-5.77,-5.77,0,*52
1515636425.04,18279,11.69,72896.3,-5.03,-5.77,-5.81,0,*5A
1515636426.3,18280,11.69,72906.3,-5.03,-5.77,-5.77,0,*55
1515636427.55,18281,11.75,72906.0,-5.01,-5.81,-5.77,0,*5F
1515636428.82,18282,11.69,72906.5,-5.03,-5.81,-5.77,0,*5E
1515636430.09,18283,11.69,72906.0,-5.03,-5.81,-5.81,0,*56
1515636431.35,18284,11.69,72900.0,-5.03,-5.77,-5.77,0,*51
1515636432.62,18285,11.69,72902.3,-5.03,-5.81,-5.77,0,*59
1515636433.89,18286,11.69,72906.0,-5.03,-5.77,-5.81,0,*5A
1515636435.17,18287,11.69,72900.5,-5.03,-5.77,-5.81,0,*5B
1515636436.43,18288,11.69,72900.8,-5.03,-5.81,-5.77,0,*54
1515636437.68,18289,11.69,72900.3,-5.01,-5.81,-5.77,0,*57
1515636438.95,18290,11.69,72904.5,-5.03,-5.77,-5.81,0,*5D
1515636440.21,18291,11.69,72902.8,-5.03,-5.77,-5.77,0,*55
1515636441.48,18292,11.69,72902.0,-5.03,-5.69,-5.77,0,*59
1515636442.75,18293,11.75,72914.0,-5.03,-5.69,-5.69,0,*57
1515636444.03,18294,11.69,72910.8,-5.03,-5.77,-5.69,0,*5F
1515636445.27,18295,11.69,72906.0,-5.01,-5.69,-5.77,0,*5C
1515636446.54,18296,11.69,72904.0,-5.03,-5.77,-5.77,0,*52
1515636447.8,18297,11.69,72900.3,-5.03,-5.77,-5.77,0,*53
1515636449.07,18298,11.69,72902.5,-5.03,-5.69,-5.69,0,*5C
1515636450.34,18299,11.69,72900.0,-5.03,-5.65,-5.65,0,*5D
1515636451.59,18300,11.69,72904.5,-5.01,-5.69,-5.69,0,*5E
1515636452.86,18301,11.69,72906.8,-5.03,-5.77,-5.81,0,*54
1515636454.13,18302,11.69,72902.3,-5.03,-5.77,-5.77,0,*5E
1515636455.4,18303,11.69,72898.8,-5.03,-5.77,-5.77,0,*5F
1515636456.66,18304,11.69,72894.5,-5.03,-5.77,-5.77,0,*58
1515636457.94,18305,11.69,72896.0,-5.03,-5.77,-5.69,0,*56
1515636459.21,18306,11.69,72900.5,-5.03,-5.77,-5.69,0,*55
1515636460.48,18307,11.69,72896.0,-5.03,-5.77,-5.69,0,*54
1515636461.75,18308,11.69,72898.8,-5.03,-5.77,-5.69,0,*5B
1515636463.02,18309,11.69,72896.3,-5.03,-5.69,-5.77,0,*5A
1515636464.29,18310,11.75,72902.0,-5.03,-5.77,-5.81,0,*54
1515636465.53,18311,11.69,72896.3,-5.01,-5.81,-5.81,0,*5E
1515636466.81,18312,11.69,72900.0,-5.03,-5.81,-5.81,0,*5F
1515636468.07,18313,11.69,72902.5,-5.03,-5.77,-5.77,0,*5E
1515636469.34,18314,11.69,72896.0,-5.03,-5.81,-5.77,0,*50
1515636470.59,18315,11.69,72902.3,-5.01,-5.81,-5.81,0,*5A
1515636471.86,18316,11.69,72896.5,-5.03,-5.81,-5.77,0,*52
1515636473.12,18317,11.69,72898.8,-5.03,-5.77,-5.77,0,*5A
1515636474.4,18318,11.69,72900.0,-5.03,-5.77,-5.81,0,*5C
1515636475.66,18319,11.69,72902.0,-5.03,-5.77,-5.77,0,*54
1515636476.93,18320,11.69,72902.8,-5.03,-5.77,-5.77,0,*5E
1515636478.2,18321,11.69,72902.8,-5.03,-5.77,-5.69,0,*50
1515636479.47,18322,11.69,72910.3,-5.03,-5.77,-5.69,0,*53
1515636480.74,18323,11.69,72910.0,-5.03,-5.77,-5.69,0,*52
1515636482.01,18324,11.69,72908.0,-5.03,-5.69,-5.69,0,*5A
1515636483.29,18325,11.69,72908.3,-5.03,-5.69,-5.65,0,*57
1515636484.56,18326,11.75,72910.8,-5.03,-5.65,-5.69,0,*54
1515636485.82,18327,11.69,72908.0,-5.03,-5.81,-5.77,0,*50
1515636487.1,18328,11.69,72908.8,-5.03,-5.77,-5.81,0,*5F
1515636488.36,18329,11.75,72908.5,-5.03,-5.77,-5.77,0,*57
1515636489.63,18330,11.69,72908.8,-5.03,-5.77,-5.77,0,*5F
1515636490.9,18331,11.69,72904.3,-5.03,-5.81,-5.81,0,*5E
1515636492.17,18332,11.69,72908.0,-5.03,-5.77,-5.77,0,*5D
1515636493.42,18333,11.75,72910.3,-5.01,-5.81,-5.81,0,*5E
1515636494.68,18334,11.75,72910.0,-5.03,-5.77,-5.77,0,*5B
1515636495.95,18335,11.69,72906.0,-5.03,-5.77,-5.77,0,*5A
1515636497.22,18336,11.69,72908.8,-5.03,-5.77,-5.77,0,*59
1515636498.46,18337,11.69,72908.0,-5.01,-5.77,-5.77,0,*5A
1515636499.73,18338,11.69,72908.3,-5.03,-5.77,-5.69,0,*58
1515636501.0,18339,11.69,72914.3,-5.03,-5.77,-5.69,0,*59
1515636502.25,18340,11.69,72906.5,-5.05,-5.81,-5.81,0,*5E
1515636503.51,18341,11.69,72914.5,-5.05,-5.81,-5.85,0,*5B
1515636504.77,18342,11.69,72914.3,-5.05,-5.85,-5.81,0,*58
1515636506.02,18343,11.69,72914.0,-5.05,-5.85,-5.81,0,*59
1515636507.28,18344,11.69,72910.0,-5.05,-5.85,-5.85,0,*5A
1515636508.54,18345,11.69,72904.3,-5.05,-5.85,-5.85,0,*5B
1515636509.79,18346,11.69,72902.5,-5.05,-5.85,-5.81,0,*5C
1515636511.06,18347,11.69,72896.3,-5.03,-5.81,-5.77,0,*56
1515636512.33,18348,11.69,72898.5,-5.03,-5.77,-5.77,0,*50
1515636513.6,18349,11.69,72894.5,-5.03,-5.77,-5.77,0,*51
1515636514.87,18350,11.69,72900.3,-5.03,-5.77,-5.69,0,*56
1515636516.14,18351,11.69,72898.5,-5.03,-5.69,-5.65,0,*54
1515636517.41,18352,11.69,72906.0,-5.03,-5.69,-5.65,0,*57
1515636518.68,18353,11.69,72908.3,-5.03,-5.69,-5.69,0,*5A
1515636519.95,18354,11.69,72904.3,-5.03,-5.69,-5.77,0,*52